TimeEST,TemperatureF,Dew PointF,Humidity,Sea Level PressureIn,VisibilityMPH,Wind Direction,Wind SpeedMPH,Gust SpeedMPH,PrecipitationIn,Events,Conditions,WindDirDegrees,DateUTC
12:54 AM,28.9,23.0,78,30.22,10.0,Calm,Calm,-,N/A,,Partly Cloudy,0,2013-02-26 05:54:00
1:54 AM,28.0,23.0,81,30.23,10.0,Calm,Calm,-,N/A,,Partly Cloudy,0,2013-02-26 06:54:00
2:54 AM,28.0,23.0,81,30.22,10.0,Calm,Calm,-,N/A,,Scattered Clouds,0,2013-02-26 07:54:00
3:54 AM,27.0,23.0,85,30.20,10.0,Calm,Calm,-,N/A,,Mostly Cloudy,0,2013-02-26 08:54:00
4:54 AM,28.0,24.1,85,30.17,10.0,Calm,Calm,-,N/A,,Overcast,0,2013-02-26 09:54:00
5:54 AM,28.0,24.1,85,30.19,9.0,Calm,Calm,-,N/A,,Overcast,0,2013-02-26 10:54:00
6:54 AM,30.0,27.0,88,30.20,7.0,Calm,Calm,-,N/A,,Overcast,0,2013-02-26 11:54:00
7:54 AM,33.1,30.0,89,30.20,6.0,Calm,Calm,-,N/A,,Overcast,0,2013-02-26 12:54:00
8:54 AM,35.1,30.0,82,30.20,7.0,East,8.1,-,N/A,,Overcast,90,2013-02-26 13:54:00
9:54 AM,37.9,30.9,76,30.20,8.0,East,10.4,-,N/A,,Overcast,80,2013-02-26 14:54:00
10:54 AM,39.0,28.9,67,30.17,10.0,East,11.5,-,N/A,,Overcast,90,2013-02-26 15:54:00
11:54 AM,39.0,30.0,70,30.15,9.0,East,12.7,-,N/A,,Overcast,90,2013-02-26 16:54:00
12:54 PM,39.9,33.1,77,30.12,6.0,ENE,10.4,-,0.00,Rain,Light Rain,70,2013-02-26 17:54:00
1:54 PM,41.0,36.0,82,30.06,7.0,ENE,12.7,-,0.02,Rain,Light Rain,70,2013-02-26 18:54:00
2:08 PM,41.0,37.4,87,30.05,7.0,ENE,11.5,-,0.00,Rain,Light Rain,70,2013-02-26 19:08:00
2:54 PM,42.1,37.0,82,30.02,7.0,East,13.8,-,0.01,Rain,Light Rain,90,2013-02-26 19:54:00
3:54 PM,42.1,37.9,85,29.96,6.0,East,16.1,-,0.05,Rain,Light Rain,90,2013-02-26 20:54:00
4:54 PM,42.1,37.0,82,29.91,10.0,East,24.2,-,0.01,Rain,Light Rain,90,2013-02-26 21:54:00
5:54 PM,42.1,37.0,82,29.86,10.0,East,26.5,40.3,0.01,,Light Drizzle,90,2013-02-26 22:54:00
6:38 PM,42.8,37.4,81,29.81,6.0,East,26.5,34.5,0.00,Rain,Light Rain,80,2013-02-26 23:38:00
6:54 PM,41.0,39.0,93,29.80,4.0,East,24.2,34.5,0.01,Rain,Light Rain,80,2013-02-26 23:54:00
7:54 PM,42.1,39.9,92,29.77,4.0,East,26.5,35.7,0.08,Rain,Light Rain,90,2013-02-27 00:54:00
8:54 PM,42.1,41.0,96,29.73,4.0,East,20.7,-,0.12,Rain,Rain,80,2013-02-27 01:54:00
9:54 PM,42.1,41.0,96,29.71,4.0,ENE,15.0,-,0.11,Rain,Rain,60,2013-02-27 02:54:00
10:54 PM,42.1,41.0,96,29.67,8.0,NE,13.8,-,0.04,,Light Drizzle,50,2013-02-27 03:54:00
11:54 PM,43.0,42.1,97,29.62,4.0,NE,16.1,24.2,0.03,Rain,Light Rain,50,2013-02-27 04:54:00